www.pogodaiklimat.ru

Погода и климат >> Архив погоды >> Виргинские Острова >> Шарлотта-Амалия


ПОГОДА в Шарлотта-Амалии

  • Прогноз погоды в Шарлотта-Амалии
  • Монитор погоды в Шарлотта-Амалии

АРХИВ ПОГОДЫ в Шарлотта-Амалии

Время (UTC), дата Ветер
(напр.,м/с)
 
Видим.   Явления Облачность Т
(С)
Тd
(С)
f
(%)
Тe
(С)
Тes
(С)
Комфортность P
(гПа)
Po
(гПа)
Тmin
(С)
Tmax
(С)
R
(мм)
R24
(мм)
S
(см)
00 19.08 В 5 16 км ясно +27.8 +24.4 82 +39 +39 очень
душно
1016.6 1008.5 +26.7 +32.2 2
06 19.08 В 3 16 км ясно +27.8 +24.4 82 +39 +39 очень
душно
1016.1 1008.2 +26.7 +29.4
12 19.08 В 5 16 км ясно +28.3 +25.0 82 +41 +43 опасность
перегрева
1017.0 1008.8 +25.6 +32.2 1
18 19.08 ЮВ 6 16 км 5/5 600 м
[]
+31.7 +23.9 63 +43 +47 опасность
перегрева
1017.0 1008.8 +26.7 +32.2
00 20.08 В 5 16 км 3/3 1000 м
[]
+27.8 +26.1 90 +42 +42 опасность
перегрева
1016.1 1008.2 +25.6 +32.8 0.0
06 20.08 В 3 16 км ясно +27.2 +25.0 88 +39 +39 очень
душно
1015.8 1007.8 +25.6 +28.3
12 20.08 В 5 16 км ясно +29.4 +25.0 77 +42 +45 опасность
перегрева
1017.5 1009.5 +26.7 +32.8 0.0
18 20.08 ЮВ 5 16 км 5/5 600 м
[]
+29.4 +24.4 75 +42 +46 опасность
перегрева
1016.7 1008.5 +27.2 +31.7 0.3
00 21.08 СВ 4 16 км ясно +27.8 +24.4 82 +39 +39 очень
душно
1016.2 1008.2 +26.7 +31.7 0.8
06 21.08 В 3 16 км ясно +27.8 +23.9 79 +38 +38 очень
душно
1016.4 1008.2 +26.7 +29.4
12 21.08 В 5 16 км ясно +29.4 +23.9 72 +40 +43 очень
душно
1016.7 1008.5 +26.7 +31.7
18 21.08 В 6 16 км 3/3 600 м
[]
+32.2 +22.2 56 +41 +47 опасность
перегрева
1015.8 1007.8 +26.7 +32.8
00 22.08 СВ 3 16 км ясно +28.3 +22.8 72 +38 +38 очень
душно
1015.2 1007.2 +26.7 +33.3
06 22.08 В 4 16 км 8/0
[]
+27.2 +23.9 82 +37 +37 очень
душно
1015.3 1007.2 +26.7 +29.4
12 22.08 В 7 16 км 5/0
[]
+27.8 +22.8 74 +37 +38 очень
душно
1016.9 1008.8 +26.1 +33.3 0.0
18 22.08 ЮВ 5 16 км ясно +30.0 +25.0 75 +43 +53 опасность
перегрева
1015.9 1007.8 +26.1 +31.1 0.5
00 23.08 В 5 16 км 5/5 600 м
[]
+28.3 +25.0 82 +41 +41 опасность
перегрева
1016.4 1008.2 +26.1 +31.7 0.5
06 23.08 В 4 16 км ясно +27.2 +24.4 85 +38 +38 очень
душно
1016.4 1008.5 +26.1 +28.3
12 23.08 В 5 16 км ясно +29.4 +23.3 70 +40 +42 очень
душно
1017.7 1009.5 +26.7 +31.7
18 23.08 ЮВ 6 16 км ясно +31.7 +24.4 65 +44 +51 опасность
перегрева
1016.2 1008.2 +27.2 +32.8
00 24.08 В 6 16 км 5/5 600 м
[]
+28.9 +23.9 74 +40 +40 очень
душно
1016.7 1008.5 +26.7 +32.8
06 24.08 В 4 16 км ясно +27.8 +24.4 82 +39 +39 очень
душно
1016.3 1008.2 +26.7 +29.4
12 24.08 В 5 16 км 3/3 600 м
[]
+30.0 +25.0 75 +43 +45 опасность
перегрева
1017.6 1009.5 +27.2 +32.8
18 24.08 ЮВ 7 16 км 5/5 600 м
[]
+31.1 +24.4 68 +44 +46 опасность
перегрева
1016.3 1008.2 +28.9 +32.2
00 25.08 В 4 16 км ясно +28.9 +25.0 80 +42 +42 опасность
перегрева
1016.3 1008.2 +27.2 +32.2
06 25.08 В 3 16 км ясно +27.2 +25.6 91 +40 +40 очень
душно
1016.5 1008.5 +27.2 +30.0 6
12 25.08 В 5 16 км ясно +28.9 +24.4 77 +41 +43 опасность
перегрева
1017.1 1008.8 +26.7

 

Местоположение метеостанции Шарлотта-Амалия (Виргинские Острова): широта 18.35 долгота -64.96 высота над уровнем моря 6 м.

В архиве по умолчанию представлена погода в Шарлотта-Амалии за последнюю неделю. Архивные данные за месяц целиком и за предыдущие месяцы, начиная с января 2011 года, Вы можете получить, выбрав интересующий диапазон дат из раскрывающегося списка и нажав кнопку "Ввод!".


*Определитесь, кто Вы:
робот инопланетянин человек

Внимание! Время в таблицах - всемирное. Для получения местного времени необходимо прибавить поправку, которая равна -5 ч.

Смотрите также архив погоды в соседних городах и на ближайших метеорологических станциях:

Погода в Принцессы Юлианы аэропорту (Нидерландские Антилы) (199 км)
Погода в Ангилье (Ангилья) (202 км)
Погода в Аэропорту Роберт Брэдшоу (Сент-Китс и Невис) (268 км)
Погода в Аэропорту Ванс Амори (Сент-Китс и Невис) (281 км)
Погода в Пунта-Кане (Доминиканская Республика) (360 км)
Погода в Сент-Джонсе (Антигуа и Барбуда) (364 км)
Погода в Ла Романа аэропорту (Доминиканская Республика) (418 км)
Погода в Пуэнт-а-Питре (Гваделупа) (425 км)
Погода в Сабана де ла Мар (Доминиканская Республика) (472 км)
Погода в Канфилд аэропорту (Доминика) (492 км)

Пояснения к столбцам:

Ветер - указаны скорость ветра в м/с - средняя за 10 мин, порывы в срок и между сроками (в фигурных скобках) и направление, откуда дует ветер: С - северный, СВ - северо-восточный, В - восточный, ЮВ - юго-восточный, Ю - южный, ЮЗ - юго-западный, З - западный, СЗ - северо-западный.
Видимость - горизонтальная дальность видимости в метрах или километрах. При видимости от 1 до 10 км при отсутствии осадков обычно наблюдается дымка, при ухудшении видимости до 1 км и менее - туман. В сухую погоду видимость может ухудшаться дымом, пылью или мглою.
Явления - указаны атмосферные явления, наблюдавшиеся в срок или в последний час перед сроком; фигурными скобками обозначены явления, наблюдавшиеся между сроками (за 1-3 часа до срока); квадратными скобками обозначены град или гололедные отложения с указанием их диаметра в мм.
Облачность - указаны через наклонную черту общая и нижняя облачность в баллах и высота нижней границы облаков в метрах; квадратными скобками обозначены формы облаков: Ci - перистые, Cs - перисто-слоистые, Cc - перисто-кучевые, Ac - высококучевые, As - высокослоистые, Sc - слоисто-кучевые, Ns - слоисто-дождевые, Cu - кучевые, Cb - кучево-дождевые. Подробнее классификацию облаков см. в Атласе облаков (PDF).
T - Температура воздуха - температура, измеренная на высоте 2 м над землей.
Td - Температура точки росы - температура, при понижении до которой содержащийся в воздухе водяной пар достигнет насыщения.
f - Относительная влажность воздуха - влажноcть воздуха, измеренная на высоте 2 м над землей.
Te - Эффективная температура - температура, которую ощущает одетый по сезону человек в тени. Характеристика душности погоды. При расчете учитывается влияние влажности воздуха и скорости ветра на теплоощущения человека.
Tes - Эффективная температура на солнце - температура, которую ощущает человек, с поправкой на солнечный нагрев. Характеристика знойности погоды. Зависит от высоты солнца над горизонтом, облачности и скорости ветра. Ночью, в пасмурную погоду, а также при ветре 12 м/с и более поправка равна нулю.
P - Атмосферное давление - приведенное к уровню моря атмосферное давление.
Po - Атмосферное давление - измеренное на уровне метеостанции атмосферное давление.
Tmin - Минимальная температура - минимум температуры воздуха на высоте 2 м над землей.
Tmax - Максимальная температура - максимум температуры воздуха на высоте 2 м над землей.
R - Количество осадков - Количество выпавших осадков за период времени, мм. При наведении курсора мыши на число - период времени, за который выпало указанное количество осадков.
R24 - Количество осадков - Количество выпавших осадков за 24 часа, мм.
S - Снежный покров - Высота снежного покрова, см. При наведении курсора мыши на число - состояние снежного покрова и степень покрытия местности в баллах.